2018-083F (43667 NORAD) Tracking and Keplerian Element Data

This shows tracking and keplerian element data for the satellite.

Feedback or suggestion? Click here.




ElementValue
Catalog43667
Name2018-083F
Epoch Orbit248
Epoch Day317.85768818
Epoch Year2018
RAAN340.3181
Inclination97.6221
Eccentricity0.0195039
Argument of Perigee342.1721
Mean Anonmoly17.2733
Mean Motion15.75645514
Decay Rate0.00210864
L11 43667U 18083F 18317.85768818 .00210864 23663-5 37674-3 0 9993
L22 43667 97.6221 340.3181 0195039 342.1721 17.2733 15.75645514 2482

Live tracking and technical data element details for 2018-083F (NORAD 43667). 2018-083F can be tracked NOW for your location showing map with azimuth and elevation plus other details from your city location.

Track the satellite on the map from your city or location and see movement details for azimuth, elevation, latitude, longitude, range, height, and movement on the map or in text.







IsCatalogInMostPopularTable: catalog: 43667, numindb: 5
Update: records affected: 1



GetName: 43667 2018-083F

Hit Count: updated at: Thu, 15 Nov 2018 04:34:33 GMT